Time,TemperatureF,DewpointF,PressureIn,WindDirection,WindDirectionDegrees,WindSpeedMPH,WindSpeedGustMPH,Humidity,HourlyPrecipIn,Conditions,Clouds,dailyrainin,SoftwareType,DateUTC
2013-02-25 00:00:00,46.7,36.7,29.80,ESE,118,5.0,5.0,68,0.00,,,0.00,LWC2 V0.39 B123,2013-02-25 07:00:00,
2013-02-25 00:05:00,46.5,36.5,29.80,SE,127,5.0,8.0,68,0.00,,,0.00,LWC2 V0.39 B123,2013-02-25 07:05:00,
2013-02-25 00:10:00,46.5,36.5,29.80,East,97,2.0,8.0,68,0.00,,,0.00,LWC2 V0.39 B123,2013-02-25 07:10:00,
2013-02-25 00:15:00,46.6,36.6,29.80,SE,124,5.0,8.0,68,0.00,,,0.00,LWC2 V0.39 B123,2013-02-25 07:15:00,
2013-02-25 00:20:00,46.6,36.2,29.79,ESE,109,6.0,10.0,67,0.00,,,0.00,LWC2 V0.39 B123,2013-02-25 07:20:00,
2013-02-25 00:25:00,46.6,36.2,29.79,SE,134,5.0,7.0,67,0.00,,,0.00,LWC2 V0.39 B123,2013-02-25 07:25:00,
2013-02-25 00:30:00,46.5,36.1,29.79,ESE,107,7.0,9.0,67,0.00,,,0.00,LWC2 V0.39 B123,2013-02-25 07:30:00,
2013-02-25 00:35:00,46.5,36.5,29.79,SE,142,1.0,8.0,68,0.00,,,0.00,LWC2 V0.39 B123,2013-02-25 07:35:00,
2013-02-25 00:40:00,46.4,36.4,29.79,East,101,7.0,8.0,68,0.00,,,0.00,LWC2 V0.39 B123,2013-02-25 07:40:00,
2013-02-25 00:45:00,46.3,36.3,29.79,SE,128,4.0,6.0,68,0.00,,,0.00,LWC2 V0.39 B123,2013-02-25 07:45:00,
2013-02-25 00:50:00,46.2,36.6,29.79,SE,141,4.0,10.0,69,0.00,,,0.00,LWC2 V0.39 B123,2013-02-25 07:50:00,
2013-02-25 00:55:00,46.1,36.5,29.78,SE,129,8.0,9.0,69,0.00,,,0.00,LWC2 V0.39 B123,2013-02-25 07:55:00,
2013-02-25 01:00:00,46.0,36.4,29.78,ESE,121,7.0,9.0,69,0.00,,,0.00,LWC2 V0.39 B123,2013-02-25 08:00:00,
2013-02-25 01:05:00,45.9,36.3,29.78,ESE,110,5.0,9.0,69,0.00,,,0.00,LWC2 V0.39 B123,2013-02-25 08:05:00,
2013-02-25 01:10:00,45.9,36.3,29.78,ENE,63,3.0,10.0,69,0.00,,,0.00,LWC2 V0.39 B123,2013-02-25 08:10:00,
2013-02-25 01:15:00,46.0,36.4,29.78,SE,136,6.0,7.0,69,0.00,,,0.00,LWC2 V0.39 B123,2013-02-25 08:15:00,
2013-02-25 01:20:00,45.9,36.3,29.78,ESE,107,6.0,10.0,69,0.00,,,0.00,LWC2 V0.39 B123,2013-02-25 08:20:00,
2013-02-25 01:25:00,45.9,36.3,29.79,ESE,117,6.0,6.0,69,0.00,,,0.00,LWC2 V0.39 B123,2013-02-25 08:25:00,
2013-02-25 01:30:00,45.9,35.9,29.80,SSE,160,7.0,9.0,68,0.00,,,0.00,LWC2 V0.39 B123,2013-02-25 08:30:00,
2013-02-25 01:35:00,45.9,35.9,29.80,SSE,147,3.0,6.0,68,0.00,,,0.00,LWC2 V0.39 B123,2013-02-25 08:35:00,
2013-02-25 01:40:00,45.9,36.3,29.80,ENE,65,2.0,5.0,69,0.00,,,0.00,LWC2 V0.39 B123,2013-02-25 08:40:00,
2013-02-25 01:45:00,46.0,36.0,29.80,ESE,110,3.0,4.0,68,0.00,,,0.00,LWC2 V0.39 B123,2013-02-25 08:45:00,
2013-02-25 01:50:00,45.9,35.9,29.79,East,96,2.0,3.0,68,0.00,,,0.00,LWC2 V0.39 B123,2013-02-25 08:50:00,
2013-02-25 01:55:00,45.8,36.2,29.78,ESE,107,3.0,5.0,69,0.00,,,0.00,LWC2 V0.39 B123,2013-02-25 08:55:00,
2013-02-25 02:00:00,45.8,36.6,29.78,East,96,3.0,4.0,70,0.00,,,0.00,LWC2 V0.39 B123,2013-02-25 09:00:00,
2013-02-25 02:05:00,45.7,36.5,29.78,ESE,111,3.0,4.0,70,0.00,,,0.00,LWC2 V0.39 B123,2013-02-25 09:05:00,
2013-02-25 02:10:00,45.7,36.5,29.78,ESE,105,2.0,3.0,70,0.00,,,0.00,LWC2 V0.39 B123,2013-02-25 09:10:00,
2013-02-25 02:15:00,45.8,36.2,29.78,ESE,121,2.0,6.0,69,0.00,,,0.00,LWC2 V0.39 B123,2013-02-25 09:15:00,
2013-02-25 02:20:00,45.8,36.2,29.78,SE,132,5.0,7.0,69,0.00,,,0.00,LWC2 V0.39 B123,2013-02-25 09:20:00,
2013-02-25 02:25:00,45.9,36.3,29.78,ESE,111,3.0,5.0,69,0.00,,,0.00,LWC2 V0.39 B123,2013-02-25 09:25:00,
2013-02-25 02:30:00,45.8,36.2,29.79,East,98,3.0,6.0,69,0.00,,,0.00,LWC2 V0.39 B123,2013-02-25 09:30:00,
2013-02-25 02:35:00,45.7,36.1,29.79,ESE,108,4.0,6.0,69,0.00,,,0.00,LWC2 V0.39 B123,2013-02-25 09:35:00,
2013-02-25 02:40:00,45.7,36.1,29.78,ESE,121,3.0,6.0,69,0.00,,,0.00,LWC2 V0.39 B123,2013-02-25 09:40:00,
2013-02-25 02:45:00,45.7,36.1,29.78,ESE,113,3.0,5.0,69,0.00,,,0.00,LWC2 V0.39 B123,2013-02-25 09:45:00,
2013-02-25 02:50:00,45.5,36.3,29.77,East,79,3.0,3.0,70,0.00,,,0.00,LWC2 V0.39 B123,2013-02-25 09:50:00,
2013-02-25 02:55:00,45.3,36.1,29.77,ESE,114,2.0,3.0,70,0.00,,,0.00,LWC2 V0.39 B123,2013-02-25 09:55:00,
2013-02-25 03:00:00,45.2,36.0,29.77,East,98,4.0,5.0,70,0.00,,,0.00,LWC2 V0.39 B123,2013-02-25 10:00:00,
2013-02-25 03:05:00,45.1,35.9,29.76,ESE,115,2.0,6.0,70,0.00,,,0.00,LWC2 V0.39 B123,2013-02-25 10:05:00,
2013-02-25 03:10:00,45.1,35.9,29.76,ESE,113,1.0,8.0,70,0.00,,,0.00,LWC2 V0.39 B123,2013-02-25 10:10:00,
2013-02-25 03:15:00,45.1,35.9,29.76,ESE,110,2.0,5.0,70,0.00,,,0.00,LWC2 V0.39 B123,2013-02-25 10:15:00,
2013-02-25 03:20:00,45.0,36.2,29.76,ESE,111,2.0,6.0,71,0.00,,,0.00,LWC2 V0.39 B123,2013-02-25 10:20:00,
2013-02-25 03:25:00,44.9,35.7,29.76,ESE,107,2.0,5.0,70,0.00,,,0.00,LWC2 V0.39 B123,2013-02-25 10:25:00,
2013-02-25 03:30:00,44.8,35.6,29.75,ESE,118,3.0,6.0,70,0.00,,,0.00,LWC2 V0.39 B123,2013-02-25 10:30:00,
2013-02-25 03:35:00,44.6,35.8,29.74,ESE,117,3.0,5.0,71,0.00,,,0.00,LWC2 V0.39 B123,2013-02-25 10:35:00,
2013-02-25 03:40:00,44.4,35.9,29.73,East,84,3.0,9.0,72,0.00,,,0.00,LWC2 V0.39 B123,2013-02-25 10:40:00,
2013-02-25 03:45:00,44.3,35.9,29.72,ESE,105,3.0,10.0,72,0.00,,,0.00,LWC2 V0.39 B123,2013-02-25 10:45:00,
2013-02-25 03:50:00,44.2,35.8,29.71,ESE,105,8.0,12.0,72,0.00,,,0.00,LWC2 V0.39 B123,2013-02-25 10:50:00,
2013-02-25 03:55:00,44.1,35.7,29.70,ESE,105,3.0,10.0,72,0.00,,,0.00,LWC2 V0.39 B123,2013-02-25 10:55:00,
2013-02-25 04:00:00,44.1,35.3,29.70,SE,124,8.0,13.0,71,0.00,,,0.00,LWC2 V0.39 B123,2013-02-25 11:00:00,
2013-02-25 04:05:00,44.1,35.3,29.70,East,100,4.0,11.0,71,0.00,,,0.00,LWC2 V0.39 B123,2013-02-25 11:05:00,
2013-02-25 04:10:00,43.9,35.1,29.69,ESE,110,8.0,10.0,71,0.00,,,0.00,LWC2 V0.39 B123,2013-02-25 11:10:00,
2013-02-25 04:15:00,43.9,35.1,29.69,ESE,104,5.0,14.0,71,0.00,,,0.00,LWC2 V0.39 B123,2013-02-25 11:15:00,
2013-02-25 04:20:00,43.9,35.1,29.70,East,87,7.0,7.0,71,0.00,,,0.00,LWC2 V0.39 B123,2013-02-25 11:20:00,
2013-02-25 04:25:00,43.8,35.0,29.70,SE,128,8.0,8.0,71,0.00,,,0.00,LWC2 V0.39 B123,2013-02-25 11:25:00,
2013-02-25 04:30:00,43.9,35.1,29.69,ESE,103,4.0,9.0,71,0.00,,,0.00,LWC2 V0.39 B123,2013-02-25 11:30:00,
2013-02-25 04:35:00,43.9,35.1,29.69,SE,142,3.0,13.0,71,0.00,,,0.00,LWC2 V0.39 B123,2013-02-25 11:35:00,
2013-02-25 04:40:00,44.0,34.9,29.68,East,91,6.0,11.0,70,0.00,,,0.00,LWC2 V0.39 B123,2013-02-25 11:40:00,
2013-02-25 04:45:00,44.0,34.9,29.68,East,82,5.0,6.0,70,0.00,,,0.00,LWC2 V0.39 B123,2013-02-25 11:45:00,
2013-02-25 04:50:00,43.9,34.8,29.68,ESE,115,5.0,7.0,70,0.00,,,0.00,LWC2 V0.39 B123,2013-02-25 11:50:00,
2013-02-25 04:55:00,43.9,34.8,29.68,East,86,4.0,11.0,70,0.00,,,0.00,LWC2 V0.39 B123,2013-02-25 11:55:00,
2013-02-25 05:00:00,43.7,34.6,29.67,ESE,104,2.0,9.0,70,0.00,,,0.00,LWC2 V0.39 B123,2013-02-25 12:00:00,
2013-02-25 05:05:00,43.5,34.7,29.67,ENE,72,4.0,6.0,71,0.00,,,0.00,LWC2 V0.39 B123,2013-02-25 12:05:00,
2013-02-25 05:10:00,43.5,35.1,29.67,East,95,2.0,7.0,72,0.00,,,0.00,LWC2 V0.39 B123,2013-02-25 12:10:00,
2013-02-25 05:15:00,43.5,35.1,29.68,East,93,4.0,4.0,72,0.00,,,0.00,LWC2 V0.39 B123,2013-02-25 12:15:00,
2013-02-25 05:20:00,43.5,35.1,29.69,East,100,1.0,8.0,72,0.00,,,0.00,LWC2 V0.39 B123,2013-02-25 12:20:00,
2013-02-25 05:25:00,43.4,35.0,29.69,ESE,115,2.0,3.0,72,0.00,,,0.00,LWC2 V0.39 B123,2013-02-25 12:25:00,
2013-02-25 05:30:00,43.3,34.9,29.70,East,79,3.0,6.0,72,0.00,,,0.00,LWC2 V0.39 B123,2013-02-25 12:30:00,
2013-02-25 05:35:00,43.1,35.0,29.69,ENE,75,2.0,6.0,73,0.00,,,0.00,LWC2 V0.39 B123,2013-02-25 12:35:00,
2013-02-25 05:40:00,43.1,35.0,29.71,SE,128,4.0,5.0,73,0.00,,,0.00,LWC2 V0.39 B123,2013-02-25 12:40:00,
2013-02-25 05:45:00,43.0,34.9,29.72,ENE,70,4.0,9.0,73,0.00,,,0.00,LWC2 V0.39 B123,2013-02-25 12:45:00,
2013-02-25 05:51:00,42.8,35.1,29.71,ESE,103,2.0,4.0,74,0.00,,,0.00,LWC2 V0.39 B123,2013-02-25 12:51:00,
2013-02-25 05:57:00,42.5,35.5,29.70,ENE,71,2.0,4.0,76,0.00,,,0.00,LWC2 V0.39 B123,2013-02-25 12:57:00,
2013-02-25 06:02:00,42.2,35.8,29.69,ENE,61,4.0,5.0,78,0.00,,,0.00,LWC2 V0.39 B123,2013-02-25 13:02:00,
2013-02-25 06:07:00,41.6,36.2,29.67,ENE,67,5.0,7.0,81,0.00,,,0.00,LWC2 V0.39 B123,2013-02-25 13:07:00,
2013-02-25 06:13:00,40.8,36.0,29.66,ENE,70,5.0,10.0,83,0.00,,,0.01,LWC2 V0.39 B123,2013-02-25 13:13:00,
2013-02-25 06:18:00,40.4,36.3,29.67,East,85,4.0,8.0,85,0.10,,,0.02,LWC2 V0.39 B123,2013-02-25 13:18:00,
2013-02-25 06:23:00,40.1,36.3,29.68,East,79,5.0,6.0,86,0.09,,,0.02,LWC2 V0.39 B123,2013-02-25 13:23:00,
2013-02-25 06:28:00,40.1,36.3,29.69,ENE,60,3.0,5.0,86,0.14,,,0.04,LWC2 V0.39 B123,2013-02-25 13:28:00,
2013-02-25 06:33:00,39.9,36.3,29.71,NE,50,4.0,4.0,87,0.11,,,0.05,LWC2 V0.39 B123,2013-02-25 13:33:00,
2013-02-25 06:38:00,39.8,36.5,29.75,WNW,287,0.0,1.0,88,0.10,,,0.06,LWC2 V0.39 B123,2013-02-25 13:38:00,
2013-02-25 06:43:00,39.7,36.4,29.76,WSW,253,0.0,1.0,88,0.18,,,0.07,LWC2 V0.39 B123,2013-02-25 13:43:00,
2013-02-25 06:48:00,39.6,36.6,29.75,WSW,255,0.0,1.0,89,0.31,,,0.10,LWC2 V0.39 B123,2013-02-25 13:48:00,
2013-02-25 06:53:00,39.5,36.8,29.74,NE,41,2.0,3.0,90,0.19,,,0.12,LWC2 V0.39 B123,2013-02-25 13:53:00,
2013-02-25 06:58:00,39.5,36.8,29.74,NNE,31,0.0,3.0,90,0.24,,,0.14,LWC2 V0.39 B123,2013-02-25 13:58:00,
2013-02-25 07:03:00,39.4,36.7,29.75,ENE,68,2.0,2.0,90,0.17,,,0.16,LWC2 V0.39 B123,2013-02-25 14:03:00,
2013-02-25 07:08:00,39.4,37.0,29.74,ENE,74,3.0,3.0,91,0.62,,,0.18,LWC2 V0.39 B123,2013-02-25 14:08:00,
2013-02-25 07:14:00,39.2,36.8,29.72,NNE,18,4.0,6.0,91,0.34,,,0.23,LWC2 V0.39 B123,2013-02-25 14:14:00,
2013-02-25 07:20:00,39.0,36.9,29.71,ENE,74,4.0,7.0,92,0.18,,,0.24,LWC2 V0.39 B123,2013-02-25 14:20:00,
2013-02-25 07:25:00,38.8,36.7,29.72,ENE,60,2.0,6.0,92,0.17,,,0.26,LWC2 V0.39 B123,2013-02-25 14:25:00,
2013-02-25 07:30:00,38.7,36.6,29.72,East,86,5.0,7.0,92,0.16,,,0.27,LWC2 V0.39 B123,2013-02-25 14:30:00,
2013-02-25 07:35:00,38.6,36.5,29.72,NNE,29,10.0,10.0,92,0.25,,,0.29,LWC2 V0.39 B123,2013-02-25 14:35:00,
2013-02-25 07:40:00,38.5,36.4,29.72,ENE,58,3.0,7.0,92,0.28,,,0.31,LWC2 V0.39 B123,2013-02-25 14:40:00,
2013-02-25 07:45:00,38.5,36.4,29.72,East,82,4.0,8.0,92,0.23,,,0.33,LWC2 V0.39 B123,2013-02-25 14:45:00,
2013-02-25 07:50:00,38.5,36.4,29.71,NE,44,6.0,7.0,92,0.14,,,0.34,LWC2 V0.39 B123,2013-02-25 14:50:00,
2013-02-25 07:55:00,38.5,36.7,29.70,NE,49,7.0,8.0,93,0.21,,,0.36,LWC2 V0.39 B123,2013-02-25 14:55:00,
2013-02-25 08:00:00,38.5,36.7,29.69,ENE,69,5.0,8.0,93,0.28,,,0.38,LWC2 V0.39 B123,2013-02-25 15:00:00,
2013-02-25 08:05:00,38.5,36.7,29.70,ENE,76,5.0,8.0,93,0.28,,,0.41,LWC2 V0.39 B123,2013-02-25 15:05:00,
2013-02-25 08:10:00,38.5,36.7,29.69,NE,37,4.0,11.0,93,0.22,,,0.42,LWC2 V0.39 B123,2013-02-25 15:10:00,
2013-02-25 08:15:00,38.4,36.6,29.67,ENE,74,4.0,11.0,93,0.22,,,0.44,LWC2 V0.39 B123,2013-02-25 15:15:00,
2013-02-25 08:20:00,38.3,36.5,29.68,ENE,76,4.0,12.0,93,0.24,,,0.46,LWC2 V0.39 B123,2013-02-25 15:20:00,
2013-02-25 08:25:00,38.2,36.4,29.66,East,82,8.0,12.0,93,0.15,,,0.47,LWC2 V0.39 B123,2013-02-25 15:25:00,
2013-02-25 08:30:00,38.2,36.4,29.68,ENE,77,6.0,7.0,93,0.12,,,0.48,LWC2 V0.39 B123,2013-02-25 15:30:00,
2013-02-25 08:35:00,38.2,36.4,29.67,ENE,72,6.0,9.0,93,0.10,,,0.49,LWC2 V0.39 B123,2013-02-25 15:35:00,
2013-02-25 08:40:00,38.2,36.6,29.68,ENE,77,5.0,11.0,94,0.13,,,0.50,LWC2 V0.39 B123,2013-02-25 15:40:00,
2013-02-25 08:45:00,38.2,36.6,29.68,ENE,69,5.0,9.0,94,0.14,,,0.51,LWC2 V0.39 B123,2013-02-25 15:45:00,
2013-02-25 08:50:00,38.2,36.4,29.68,NE,49,12.0,12.0,93,0.13,,,0.52,LWC2 V0.39 B123,2013-02-25 15:50:00,
2013-02-25 08:55:00,38.2,36.6,29.67,ENE,63,4.0,9.0,94,0.19,,,0.54,LWC2 V0.39 B123,2013-02-25 15:55:00,
2013-02-25 09:00:00,38.2,36.6,29.67,ENE,63,5.0,12.0,94,0.17,,,0.55,LWC2 V0.39 B123,2013-02-25 16:00:00,
2013-02-25 09:05:00,38.1,36.5,29.67,East,84,4.0,10.0,94,0.20,,,0.57,LWC2 V0.39 B123,2013-02-25 16:05:00,
2013-02-25 09:10:00,38.1,36.5,29.67,ENE,75,3.0,8.0,94,0.20,,,0.59,LWC2 V0.39 B123,2013-02-25 16:10:00,
2013-02-25 09:15:00,38.0,36.4,29.66,ENE,57,5.0,8.0,94,0.25,,,0.61,LWC2 V0.39 B123,2013-02-25 16:15:00,
2013-02-25 09:20:00,38.0,36.4,29.66,ENE,74,8.0,12.0,94,0.18,,,0.62,LWC2 V0.39 B123,2013-02-25 16:20:00,
2013-02-25 09:25:00,38.0,36.4,29.67,ENE,68,3.0,7.0,94,0.29,,,0.65,LWC2 V0.39 B123,2013-02-25 16:25:00,
2013-02-25 09:30:00,38.0,36.4,29.67,ENE,65,8.0,8.0,94,0.21,,,0.66,LWC2 V0.39 B123,2013-02-25 16:30:00,
2013-02-25 09:35:00,38.0,36.4,29.66,NE,53,6.0,9.0,94,0.23,,,0.67,LWC2 V0.39 B123,2013-02-25 16:35:00,
2013-02-25 09:40:00,38.0,36.4,29.66,ENE,70,5.0,5.0,94,0.32,,,0.69,LWC2 V0.39 B123,2013-02-25 16:40:00,
2013-02-25 09:45:00,38.0,36.4,29.66,East,80,5.0,11.0,94,0.25,,,0.72,LWC2 V0.39 B123,2013-02-25 16:45:00,
2013-02-25 09:50:00,38.1,36.5,29.65,ENE,63,4.0,8.0,94,0.23,,,0.74,LWC2 V0.39 B123,2013-02-25 16:50:00,
2013-02-25 09:55:00,38.1,36.5,29.65,ESE,110,2.0,7.0,94,0.22,,,0.76,LWC2 V0.39 B123,2013-02-25 16:55:00,
2013-02-25 10:00:00,38.1,36.8,29.64,NE,54,7.0,7.0,95,0.26,,,0.78,LWC2 V0.39 B123,2013-02-25 17:00:00,
2013-02-25 10:05:00,38.1,36.8,29.63,NE,52,11.0,13.0,95,0.18,,,0.79,LWC2 V0.39 B123,2013-02-25 17:05:00,
2013-02-25 10:10:00,38.3,37.0,29.62,NNE,33,9.0,14.0,95,0.12,,,0.80,LWC2 V0.39 B123,2013-02-25 17:10:00,
2013-02-25 10:15:00,38.3,37.0,29.62,East,91,10.0,14.0,95,0.08,,,0.80,LWC2 V0.39 B123,2013-02-25 17:15:00,
2013-02-25 10:20:00,38.3,37.0,29.62,ENE,57,8.0,14.0,95,0.05,,,0.81,LWC2 V0.39 B123,2013-02-25 17:20:00,
2013-02-25 10:25:00,38.4,37.1,29.63,ENE,67,5.0,9.0,95,0.05,,,0.81,LWC2 V0.39 B123,2013-02-25 17:25:00,
2013-02-25 10:30:00,38.5,37.2,29.62,NE,54,3.0,8.0,95,0.05,,,0.81,LWC2 V0.39 B123,2013-02-25 17:30:00,
2013-02-25 10:35:00,38.4,36.8,29.61,NE,43,8.0,16.0,94,0.05,,,0.82,LWC2 V0.39 B123,2013-02-25 17:35:00,
2013-02-25 10:40:00,38.5,36.9,29.61,ENE,64,6.0,14.0,94,0.05,,,0.82,LWC2 V0.39 B123,2013-02-25 17:40:00,
2013-02-25 10:45:00,38.5,36.9,29.62,East,83,9.0,15.0,94,0.05,,,0.82,LWC2 V0.39 B123,2013-02-25 17:45:00,
2013-02-25 10:50:00,38.3,36.7,29.62,ENE,69,3.0,8.0,94,0.04,,,0.83,LWC2 V0.39 B123,2013-02-25 17:50:00,
2013-02-25 10:55:00,38.3,36.7,29.62,ESE,115,3.0,8.0,94,0.04,,,0.83,LWC2 V0.39 B123,2013-02-25 17:55:00,
2013-02-25 11:00:00,38.3,36.7,29.60,East,84,7.0,11.0,94,0.05,,,0.84,LWC2 V0.39 B123,2013-02-25 18:00:00,
2013-02-25 11:05:00,38.6,37.0,29.59,ESE,102,6.0,8.0,94,0.05,,,0.84,LWC2 V0.39 B123,2013-02-25 18:05:00,
2013-02-25 11:10:00,38.7,37.1,29.58,ENE,63,12.0,15.0,94,0.07,,,0.85,LWC2 V0.39 B123,2013-02-25 18:10:00,
2013-02-25 11:15:00,38.8,37.2,29.58,ENE,74,6.0,10.0,94,0.07,,,0.85,LWC2 V0.39 B123,2013-02-25 18:15:00,
2013-02-25 11:20:00,38.9,37.3,29.58,East,86,10.0,10.0,94,0.05,,,0.85,LWC2 V0.39 B123,2013-02-25 18:20:00,
2013-02-25 11:25:00,38.9,37.3,29.58,East,95,4.0,12.0,94,0.00,,,0.85,LWC2 V0.39 B123,2013-02-25 18:25:00,
2013-02-25 11:30:00,38.8,37.2,29.57,NE,44,6.0,10.0,94,0.00,,,0.85,LWC2 V0.39 B123,2013-02-25 18:30:00,
2013-02-25 11:35:00,38.8,37.2,29.58,East,82,5.0,14.0,94,0.00,,,0.85,LWC2 V0.39 B123,2013-02-25 18:35:00,
2013-02-25 11:40:00,38.7,37.1,29.57,ENE,65,5.0,12.0,94,0.00,,,0.85,LWC2 V0.39 B123,2013-02-25 18:40:00,
2013-02-25 11:45:00,38.6,36.8,29.58,ESE,108,3.0,11.0,93,0.00,,,0.85,LWC2 V0.39 B123,2013-02-25 18:45:00,
2013-02-25 11:50:00,38.6,37.0,29.56,SE,132,3.0,11.0,94,0.00,,,0.85,LWC2 V0.39 B123,2013-02-25 18:50:00,
2013-02-25 11:55:00,38.5,36.7,29.56,ENE,68,5.0,14.0,93,0.00,,,0.85,LWC2 V0.39 B123,2013-02-25 18:55:00,
2013-02-25 12:00:00,38.5,36.7,29.56,ENE,74,3.0,7.0,93,0.00,,,0.85,LWC2 V0.39 B123,2013-02-25 19:00:00,
2013-02-25 12:05:00,38.5,36.7,29.56,SE,131,6.0,16.0,93,0.00,,,0.85,LWC2 V0.39 B123,2013-02-25 19:05:00,
2013-02-25 12:10:00,38.4,36.6,29.57,ESE,113,4.0,9.0,93,0.00,,,0.86,LWC2 V0.39 B123,2013-02-25 19:10:00,
2013-02-25 12:15:00,38.4,36.6,29.57,ENE,61,5.0,9.0,93,0.00,,,0.86,LWC2 V0.39 B123,2013-02-25 19:15:00,
2013-02-25 12:20:00,38.4,36.6,29.55,ESE,109,7.0,11.0,93,0.12,,,0.87,LWC2 V0.39 B123,2013-02-25 19:20:00,
2013-02-25 12:25:00,38.5,36.9,29.54,ESE,119,4.0,11.0,94,0.16,,,0.89,LWC2 V0.39 B123,2013-02-25 19:25:00,
2013-02-25 12:30:00,38.5,36.9,29.55,ESE,114,10.0,15.0,94,0.16,,,0.90,LWC2 V0.39 B123,2013-02-25 19:30:00,
2013-02-25 12:35:00,38.6,37.0,29.55,ENE,77,5.0,7.0,94,0.13,,,0.91,LWC2 V0.39 B123,2013-02-25 19:35:00,
2013-02-25 12:40:00,38.6,37.0,29.54,ENE,72,4.0,8.0,94,0.08,,,0.91,LWC2 V0.39 B123,2013-02-25 19:40:00,
2013-02-25 12:45:00,38.6,37.0,29.54,East,82,6.0,12.0,94,0.05,,,0.91,LWC2 V0.39 B123,2013-02-25 19:45:00,
2013-02-25 12:50:00,38.6,37.0,29.53,ENE,58,4.0,17.0,94,0.00,,,0.91,LWC2 V0.39 B123,2013-02-25 19:50:00,
2013-02-25 12:55:00,38.7,37.1,29.53,East,92,5.0,12.0,94,0.00,,,0.91,LWC2 V0.39 B123,2013-02-25 19:55:00,
2013-02-25 13:00:00,38.7,37.1,29.52,East,99,9.0,10.0,94,0.00,,,0.91,LWC2 V0.39 B123,2013-02-25 20:00:00,
2013-02-25 13:05:00,38.8,37.2,29.51,ENE,60,7.0,13.0,94,0.00,,,0.92,LWC2 V0.39 B123,2013-02-25 20:05:00,
2013-02-25 13:10:00,38.8,37.2,29.51,East,86,11.0,12.0,94,0.00,,,0.92,LWC2 V0.39 B123,2013-02-25 20:10:00,
2013-02-25 13:15:00,38.9,37.6,29.50,East,89,6.0,8.0,95,0.00,,,0.92,LWC2 V0.39 B123,2013-02-25 20:15:00,
2013-02-25 13:20:00,39.0,37.7,29.50,ENE,72,6.0,12.0,95,0.00,,,0.92,LWC2 V0.39 B123,2013-02-25 20:20:00,
2013-02-25 13:25:00,39.0,37.7,29.49,ESE,115,16.0,16.0,95,0.00,,,0.92,LWC2 V0.39 B123,2013-02-25 20:25:00,
2013-02-25 13:30:00,39.1,37.5,29.49,ENE,74,8.0,10.0,94,0.00,,,0.92,LWC2 V0.39 B123,2013-02-25 20:30:00,
2013-02-25 13:35:00,39.1,37.5,29.49,ENE,72,5.0,11.0,94,0.00,,,0.92,LWC2 V0.39 B123,2013-02-25 20:35:00,
2013-02-25 13:40:00,39.1,37.5,29.49,ESE,108,5.0,12.0,94,0.00,,,0.92,LWC2 V0.39 B123,2013-02-25 20:40:00,
2013-02-25 13:45:00,39.1,37.5,29.49,ESE,102,5.0,14.0,94,0.00,,,0.92,LWC2 V0.39 B123,2013-02-25 20:45:00,
2013-02-25 13:50:00,39.2,37.6,29.49,ENE,77,7.0,17.0,94,0.00,,,0.92,LWC2 V0.39 B123,2013-02-25 20:50:00,
2013-02-25 13:55:00,39.3,37.4,29.49,East,79,6.0,10.0,93,0.00,,,0.92,LWC2 V0.39 B123,2013-02-25 20:55:00,
2013-02-25 14:00:00,39.3,37.4,29.50,ENE,69,9.0,9.0,93,0.00,,,0.92,LWC2 V0.39 B123,2013-02-25 21:00:00,
2013-02-25 14:05:00,39.3,37.4,29.50,East,91,7.0,10.0,93,0.00,,,0.92,LWC2 V0.39 B123,2013-02-25 21:05:00,
2013-02-25 14:10:00,39.3,37.4,29.50,ESE,108,4.0,7.0,93,0.00,,,0.92,LWC2 V0.39 B123,2013-02-25 21:10:00,
2013-02-25 14:15:00,39.3,37.4,29.49,ENE,59,10.0,13.0,93,0.00,,,0.92,LWC2 V0.39 B123,2013-02-25 21:15:00,
2013-02-25 14:20:00,39.3,37.2,29.49,East,100,12.0,12.0,92,0.00,,,0.92,LWC2 V0.39 B123,2013-02-25 21:20:00,
2013-02-25 14:25:00,39.2,37.1,29.50,ENE,77,13.0,13.0,92,0.00,,,0.92,LWC2 V0.39 B123,2013-02-25 21:25:00,
2013-02-25 14:30:00,39.3,37.2,29.50,NE,37,6.0,16.0,92,0.00,,,0.92,LWC2 V0.39 B123,2013-02-25 21:30:00,
2013-02-25 14:35:00,39.3,37.2,29.50,NE,50,6.0,12.0,92,0.00,,,0.92,LWC2 V0.39 B123,2013-02-25 21:35:00,
2013-02-25 14:40:00,39.3,36.9,29.50,ENE,58,9.0,17.0,91,0.00,,,0.92,LWC2 V0.39 B123,2013-02-25 21:40:00,
2013-02-25 14:45:00,39.3,36.9,29.50,East,101,8.0,17.0,91,0.00,,,0.92,LWC2 V0.39 B123,2013-02-25 21:45:00,
2013-02-25 14:50:00,39.4,37.0,29.49,ESE,117,8.0,14.0,91,0.00,,,0.92,LWC2 V0.39 B123,2013-02-25 21:50:00,
2013-02-25 14:55:00,39.4,37.3,29.48,East,84,7.0,15.0,92,0.00,,,0.92,LWC2 V0.39 B123,2013-02-25 21:55:00,
2013-02-25 15:00:00,39.4,37.0,29.48,East,84,6.0,20.0,91,0.00,,,0.92,LWC2 V0.39 B123,2013-02-25 22:00:00,
2013-02-25 15:05:00,39.4,37.0,29.48,East,80,5.0,14.0,91,0.00,,,0.92,LWC2 V0.39 B123,2013-02-25 22:05:00,
2013-02-25 15:10:00,39.4,37.0,29.48,East,94,15.0,15.0,91,0.00,,,0.92,LWC2 V0.39 B123,2013-02-25 22:10:00,
2013-02-25 15:15:00,39.4,37.0,29.48,ESE,110,5.0,8.0,91,0.00,,,0.92,LWC2 V0.39 B123,2013-02-25 22:15:00,
2013-02-25 15:20:00,39.4,37.0,29.49,ENE,70,12.0,13.0,91,0.00,,,0.92,LWC2 V0.39 B123,2013-02-25 22:20:00,
2013-02-25 15:25:00,39.4,37.0,29.50,East,80,10.0,14.0,91,0.00,,,0.92,LWC2 V0.39 B123,2013-02-25 22:25:00,
2013-02-25 15:30:00,39.3,36.9,29.50,NNE,33,10.0,11.0,91,0.00,,,0.92,LWC2 V0.39 B123,2013-02-25 22:30:00,
2013-02-25 15:35:00,39.3,36.9,29.50,ENE,75,8.0,8.0,91,0.00,,,0.92,LWC2 V0.39 B123,2013-02-25 22:35:00,
2013-02-25 15:40:00,39.3,36.9,29.50,NE,56,2.0,5.0,91,0.00,,,0.92,LWC2 V0.39 B123,2013-02-25 22:40:00,
2013-02-25 15:45:00,39.3,36.9,29.50,ENE,64,4.0,10.0,91,0.00,,,0.92,LWC2 V0.39 B123,2013-02-25 22:45:00,
2013-02-25 15:50:00,39.1,36.7,29.50,East,86,10.0,13.0,91,0.00,,,0.92,LWC2 V0.39 B123,2013-02-25 22:50:00,
2013-02-25 15:55:00,38.9,36.8,29.50,ENE,72,3.0,8.0,92,0.00,,,0.92,LWC2 V0.39 B123,2013-02-25 22:55:00,
2013-02-25 16:00:00,38.8,36.7,29.50,East,85,7.0,10.0,92,0.00,,,0.92,LWC2 V0.39 B123,2013-02-25 23:00:00,
2013-02-25 16:05:00,38.8,36.7,29.50,ENE,70,6.0,7.0,92,0.00,,,0.92,LWC2 V0.39 B123,2013-02-25 23:05:00,
2013-02-25 16:10:00,38.8,36.7,29.50,ENE,78,2.0,8.0,92,0.00,,,0.92,LWC2 V0.39 B123,2013-02-25 23:10:00,
2013-02-25 16:15:00,38.8,36.7,29.50,ENE,74,4.0,10.0,92,0.00,,,0.92,LWC2 V0.39 B123,2013-02-25 23:15:00,
2013-02-25 16:20:00,38.8,37.0,29.51,ENE,76,5.0,9.0,93,0.00,,,0.92,LWC2 V0.39 B123,2013-02-25 23:20:00,
2013-02-25 16:25:00,38.7,36.6,29.51,East,94,6.0,6.0,92,0.00,,,0.92,LWC2 V0.39 B123,2013-02-25 23:25:00,
2013-02-25 16:30:00,38.5,36.4,29.51,East,82,6.0,8.0,92,0.00,,,0.92,LWC2 V0.39 B123,2013-02-25 23:30:00,
2013-02-25 16:35:00,38.4,36.6,29.50,NE,49,7.0,11.0,93,0.00,,,0.92,LWC2 V0.39 B123,2013-02-25 23:35:00,
2013-02-25 16:40:00,38.1,36.3,29.51,ENE,67,8.0,9.0,93,0.00,,,0.92,LWC2 V0.39 B123,2013-02-25 23:40:00,
2013-02-25 16:45:00,38.0,36.2,29.51,East,86,4.0,9.0,93,0.00,,,0.92,LWC2 V0.39 B123,2013-02-25 23:45:00,
2013-02-25 16:50:00,38.0,36.4,29.51,East,86,4.0,11.0,94,0.00,,,0.92,LWC2 V0.39 B123,2013-02-25 23:50:00,
2013-02-25 16:55:00,37.9,36.1,29.52,East,96,8.0,10.0,93,0.00,,,0.92,LWC2 V0.39 B123,2013-02-25 23:55:00,
2013-02-25 17:00:00,37.7,35.9,29.52,East,87,6.0,8.0,93,0.00,,,0.93,LWC2 V0.39 B123,2013-02-26 00:00:00,
2013-02-25 17:05:00,37.3,35.5,29.53,ENE,72,4.0,9.0,93,0.15,,,0.94,LWC2 V0.39 B123,2013-02-26 00:05:00,
2013-02-25 17:10:00,36.9,35.1,29.53,East,89,4.0,9.0,93,0.14,,,0.95,LWC2 V0.39 B123,2013-02-26 00:10:00,
2013-02-25 17:16:00,36.5,34.9,29.53,ENE,66,3.0,11.0,94,0.17,,,0.97,LWC2 V0.39 B123,2013-02-26 00:16:00,
2013-02-25 17:21:00,36.3,34.7,29.54,NE,53,6.0,9.0,94,0.18,,,0.99,LWC2 V0.39 B123,2013-02-26 00:21:00,
2013-02-25 17:26:00,36.1,34.5,29.54,ENE,74,6.0,6.0,94,0.19,,,0.99,LWC2 V0.39 B123,2013-02-26 00:26:00,
2013-02-25 17:31:00,36.0,34.4,29.54,NE,41,7.0,10.0,94,0.19,,,1.02,LWC2 V0.39 B123,2013-02-26 00:31:00,
2013-02-25 17:36:00,35.6,34.0,29.55,ENE,72,3.0,9.0,94,0.18,,,1.03,LWC2 V0.39 B123,2013-02-26 00:36:00,
2013-02-25 17:41:00,35.4,33.8,29.55,NE,38,3.0,5.0,94,0.13,,,1.04,LWC2 V0.39 B123,2013-02-26 00:41:00,
2013-02-25 17:46:00,35.2,33.9,29.55,NE,52,3.0,5.0,95,0.09,,,1.05,LWC2 V0.39 B123,2013-02-26 00:46:00,
2013-02-25 17:51:00,35.3,34.0,29.55,ENE,65,5.0,8.0,95,0.09,,,1.05,LWC2 V0.39 B123,2013-02-26 00:51:00,
2013-02-25 17:56:00,35.5,34.2,29.55,ENE,77,3.0,7.0,95,0.09,,,1.06,LWC2 V0.39 B123,2013-02-26 00:56:00,
2013-02-25 18:01:00,35.5,34.2,29.55,ENE,61,6.0,9.0,95,0.10,,,1.07,LWC2 V0.39 B123,2013-02-26 01:01:00,
2013-02-25 18:06:00,35.5,34.2,29.55,ENE,76,5.0,8.0,95,0.16,,,1.08,LWC2 V0.39 B123,2013-02-26 01:06:00,
2013-02-25 18:11:00,35.3,34.0,29.55,ENE,77,5.0,9.0,95,0.11,,,1.09,LWC2 V0.39 B123,2013-02-26 01:11:00,
2013-02-25 18:16:00,35.2,33.9,29.55,ENE,63,6.0,7.0,95,0.11,,,1.10,LWC2 V0.39 B123,2013-02-26 01:16:00,
2013-02-25 18:21:00,35.0,33.7,29.55,NE,49,2.0,5.0,95,0.08,,,1.11,LWC2 V0.39 B123,2013-02-26 01:21:00,
2013-02-25 18:26:00,34.8,33.5,29.54,ENE,74,4.0,8.0,95,0.08,,,1.11,LWC2 V0.39 B123,2013-02-26 01:26:00,
2013-02-25 18:31:00,34.8,33.5,29.55,ENE,69,3.0,11.0,95,0.06,,,1.12,LWC2 V0.39 B123,2013-02-26 01:31:00,
2013-02-25 18:36:00,34.7,33.4,29.55,East,82,3.0,5.0,95,0.06,,,1.12,LWC2 V0.39 B123,2013-02-26 01:36:00,
2013-02-25 18:41:00,34.7,33.4,29.55,NE,55,2.0,3.0,95,0.05,,,1.12,LWC2 V0.39 B123,2013-02-26 01:41:00,
2013-02-25 18:46:00,34.5,33.2,29.54,NE,40,4.0,5.0,95,0.04,,,1.13,LWC2 V0.39 B123,2013-02-26 01:46:00,
2013-02-25 18:51:00,34.2,32.9,29.54,ENE,65,2.0,5.0,95,0.04,,,1.13,LWC2 V0.39 B123,2013-02-26 01:51:00,
2013-02-25 18:56:00,34.0,32.7,29.54,ENE,63,2.0,4.0,95,0.04,,,1.13,LWC2 V0.39 B123,2013-02-26 01:56:00,
2013-02-25 19:01:00,33.9,32.6,29.54,ENE,65,2.0,6.0,95,0.00,,,1.13,LWC2 V0.39 B123,2013-02-26 02:01:00,
2013-02-25 19:06:00,33.7,32.4,29.54,ENE,63,3.0,6.0,95,0.00,,,1.13,LWC2 V0.39 B123,2013-02-26 02:06:00,
2013-02-25 19:11:00,33.7,32.4,29.54,NE,49,3.0,11.0,95,0.00,,,1.14,LWC2 V0.39 B123,2013-02-26 02:11:00,
2013-02-25 19:16:00,33.6,32.6,29.53,ENE,78,1.0,5.0,96,0.00,,,1.14,LWC2 V0.39 B123,2013-02-26 02:16:00,
2013-02-25 19:21:00,33.5,32.5,29.53,ENE,65,1.0,4.0,96,0.00,,,1.14,LWC2 V0.39 B123,2013-02-26 02:21:00,
2013-02-25 19:26:00,33.3,32.3,29.53,ENE,71,3.0,4.0,96,0.00,,,1.14,LWC2 V0.39 B123,2013-02-26 02:26:00,
2013-02-25 19:31:00,33.1,32.1,29.53,ENE,64,2.0,4.0,96,0.00,,,1.14,LWC2 V0.39 B123,2013-02-26 02:31:00,
2013-02-25 19:36:00,32.9,31.9,29.53,NE,41,3.0,4.0,96,0.00,,,1.14,LWC2 V0.39 B123,2013-02-26 02:36:00,
2013-02-25 19:41:00,32.8,31.8,29.53,NE,41,1.0,3.0,96,0.00,,,1.14,LWC2 V0.39 B123,2013-02-26 02:41:00,
2013-02-25 19:46:00,32.7,31.7,29.53,NE,41,2.0,3.0,96,0.00,,,1.14,LWC2 V0.39 B123,2013-02-26 02:46:00,
2013-02-25 19:51:00,32.7,31.7,29.53,NE,51,3.0,5.0,96,0.00,,,1.14,LWC2 V0.39 B123,2013-02-26 02:51:00,
2013-02-25 19:56:00,32.7,31.7,29.53,NE,34,0.0,5.0,96,0.00,,,1.14,LWC2 V0.39 B123,2013-02-26 02:56:00,
2013-02-25 20:01:00,32.6,31.6,29.53,NNE,22,3.0,5.0,96,0.00,,,1.14,LWC2 V0.39 B123,2013-02-26 03:01:00,
2013-02-25 20:06:00,32.6,31.6,29.53,North,359,2.0,5.0,96,0.00,,,1.14,LWC2 V0.39 B123,2013-02-26 03:06:00,
2013-02-25 20:11:00,32.6,31.6,29.53,NNE,18,2.0,6.0,96,0.00,,,1.14,LWC2 V0.39 B123,2013-02-26 03:11:00,
2013-02-25 20:16:00,32.6,31.6,29.53,NNE,23,2.0,6.0,96,0.00,,,1.14,LWC2 V0.39 B123,2013-02-26 03:16:00,
2013-02-25 20:21:00,32.5,31.5,29.53,NNE,19,3.0,3.0,96,0.00,,,1.14,LWC2 V0.39 B123,2013-02-26 03:21:00,
2013-02-25 20:26:00,32.5,31.5,29.53,ENE,57,4.0,4.0,96,0.00,,,1.14,LWC2 V0.39 B123,2013-02-26 03:26:00,
2013-02-25 20:31:00,32.5,31.5,29.53,NNE,26,2.0,4.0,96,0.00,,,1.14,LWC2 V0.39 B123,2013-02-26 03:31:00,
2013-02-25 20:36:00,32.5,31.5,29.53,NNE,33,0.0,3.0,96,0.00,,,1.14,LWC2 V0.39 B123,2013-02-26 03:36:00,
2013-02-25 20:41:00,32.5,31.5,29.53,NE,56,3.0,4.0,96,0.00,,,1.14,LWC2 V0.39 B123,2013-02-26 03:41:00,
2013-02-25 20:46:00,32.5,31.5,29.53,North,1,2.0,3.0,96,0.00,,,1.14,LWC2 V0.39 B123,2013-02-26 03:46:00,
2013-02-25 20:51:00,32.6,31.6,29.53,NE,43,2.0,3.0,96,0.00,,,1.14,LWC2 V0.39 B123,2013-02-26 03:51:00,
2013-02-25 20:56:00,32.6,31.6,29.53,NNE,22,3.0,4.0,96,0.00,,,1.14,LWC2 V0.39 B123,2013-02-26 03:56:00,
2013-02-25 21:01:00,32.6,31.6,29.53,NE,55,1.0,6.0,96,0.00,,,1.14,LWC2 V0.39 B123,2013-02-26 04:01:00,
2013-02-25 21:06:00,32.6,31.6,29.53,ENE,61,4.0,5.0,96,0.00,,,1.14,LWC2 V0.39 B123,2013-02-26 04:06:00,
2013-02-25 21:11:00,32.6,31.6,29.53,NNW,340,1.0,4.0,96,0.00,,,1.14,LWC2 V0.39 B123,2013-02-26 04:11:00,
2013-02-25 21:16:00,32.7,31.7,29.53,NE,56,1.0,4.0,96,0.00,,,1.14,LWC2 V0.39 B123,2013-02-26 04:16:00,
2013-02-25 21:21:00,32.7,31.7,29.54,NNE,24,1.0,6.0,96,0.00,,,1.14,LWC2 V0.39 B123,2013-02-26 04:21:00,
2013-02-25 21:26:00,32.8,31.8,29.53,NE,50,1.0,4.0,96,0.00,,,1.14,LWC2 V0.39 B123,2013-02-26 04:26:00,
2013-02-25 21:31:00,32.9,31.9,29.53,NE,39,1.0,4.0,96,0.00,,,1.14,LWC2 V0.39 B123,2013-02-26 04:31:00,
2013-02-25 21:36:00,32.9,31.9,29.53,East,81,2.0,4.0,96,0.00,,,1.14,LWC2 V0.39 B123,2013-02-26 04:36:00,
2013-02-25 21:41:00,33.0,32.0,29.53,East,79,2.0,6.0,96,0.00,,,1.14,LWC2 V0.39 B123,2013-02-26 04:41:00,